Location: Libas
(9.8833°N, 125.9833°E)
Time: 10:50:47
(UTC+00:00)

Envisat - Pass Details

Date: 26 January 2021
Orbit: 764 x 766 km, 98.1° (Epoch: 25 February)

Event Time Altitude Azimuth Distance (km) Brightness Sun altitude
Rises 20:48:19 0° 18° (NNE) 3,218 6.3 -17.3°
Reaches altitude 10° 20:50:39 10° 21° (NNE) 2,292 5.5 -16.8°
Maximum altitude 20:55:38 61° 101° (ESE) 859 3.5 -15.6°
Drops below altitude 10° 21:00:37 10° 182° (S) 2,293 5.7 -14.4°
Sets 21:02:57 0° 185° (S) 3,219 6.4 -13.9°
